Time,TemperatureF,DewpointF,PressureIn,WindDirection,WindDirectionDegrees,WindSpeedMPH,WindSpeedGustMPH,Humidity,HourlyPrecipIn,Conditions,Clouds,dailyrainin,SoftwareType,DateUTC
2013-04-19 00:01:00,46.4,44.5,30.15,SW,232,5.0,5.0,93,0.05, -RA,-RA,-99.99,VWS V12.07,2013-04-19 07:01:00,
2013-04-19 01:01:00,46.5,44.6,30.13,WSW,248,3.0,3.0,93,0.05, -RA,-RA,-99.99,VWS V12.07,2013-04-19 08:01:00,
2013-04-19 02:01:00,46.7,44.8,30.10,WSW,250,3.0,6.0,93,0.05, -RA,-RA,-99.99,VWS V12.07,2013-04-19 09:01:00,
2013-04-19 03:01:00,47.1,45.2,30.07,WSW,247,1.0,6.0,93,0.06, -RA,-RA,-99.99,VWS V12.07,2013-04-19 10:01:00,
2013-04-19 04:02:00,47.3,45.4,30.04,WNW,299,4.0,6.0,93,0.06, -RA,-RA,-99.99,VWS V12.07,2013-04-19 11:02:00,
2013-04-19 05:02:00,47.9,46.0,30.02,NNW,344,1.0,2.0,93,0.04, -RA,-RA,-99.99,VWS V12.07,2013-04-19 12:02:00,
2013-04-19 06:02:00,47.9,46.3,30.01,West,264,3.0,5.0,94,0.02, -RA BR,-RA,-99.99,VWS V12.07,2013-04-19 13:02:00,
2013-04-19 07:02:00,48.0,46.4,30.01,NE,47,0.0,0.0,94,0.01, -RA BR,-RA,-99.99,VWS V12.07,2013-04-19 14:02:00,
2013-04-19 08:02:00,48.2,46.6,30.00,SW,224,3.0,5.0,94,0.03, -RA BR,-RA,-99.99,VWS V12.07,2013-04-19 15:02:00,
2013-04-19 09:02:00,48.8,47.2,29.99,NNW,332,2.0,3.0,94,0.05, -RA,-RA,-99.99,VWS V12.07,2013-04-19 16:02:00,
2013-04-19 10:02:00,48.6,47.0,29.99,WSW,240,1.0,2.0,94,0.02, -RA BR,-RA,-99.99,VWS V12.07,2013-04-19 17:02:00,
2013-04-19 11:02:00,49.5,47.8,30.00,North,352,0.0,3.0,94,0.06, -RA BR,-RA,-99.99,VWS V12.07,2013-04-19 18:02:00,
2013-04-19 12:02:00,50.2,48.5,30.01,NNW,343,0.0,4.0,94,0.05, -RA,-RA,-99.99,VWS V12.07,2013-04-19 19:02:00,
2013-04-19 13:02:00,50.8,48.8,30.01,East,83,0.0,2.0,93,0.05, -RA BR,-RA,-99.99,VWS V12.07,2013-04-19 20:02:00,
2013-04-19 14:02:00,50.7,48.8,30.01,ENE,78,0.0,4.0,93,0.02, -RA BR,-RA,-99.99,VWS V12.07,2013-04-19 21:02:00,
2013-04-19 15:02:00,50.8,48.8,30.02,ENE,68,2.0,3.0,93,0.04, -RA,-RA,-99.99,VWS V12.07,2013-04-19 22:02:00,
2013-04-19 16:02:00,50.1,48.2,30.03,East,89,1.0,1.0,93,0.00, BR,,-99.99,VWS V12.07,2013-04-19 23:02:00,
2013-04-19 17:02:00,49.5,47.8,30.04,East,79,1.0,5.0,94,0.04, BR,,-99.99,VWS V12.07,2013-04-20 00:02:00,
2013-04-19 18:02:00,48.8,47.2,30.06,ESE,117,0.0,1.0,94,0.04, -RA BR,-RA,-99.99,VWS V12.07,2013-04-20 01:02:00,
2013-04-19 19:02:00,47.9,46.3,30.06,East,96,2.0,2.0,94,0.02, -RA,-RA,-99.99,VWS V12.07,2013-04-20 02:02:00,
2013-04-19 20:02:00,47.9,46.3,30.07,ESE,120,0.0,1.0,94,0.01, -RA,-RA,-99.99,VWS V12.07,2013-04-20 03:02:00,
2013-04-19 21:02:00,47.0,45.4,30.09,East,80,0.0,1.0,94,0.00,,OVC010,-99.99,VWS V12.07,2013-04-20 04:02:00,
2013-04-19 22:02:00,46.5,44.9,30.10,SSW,210,0.0,0.0,94,0.00,,OVC012,-99.99,VWS V12.07,2013-04-20 05:02:00,
2013-04-19 23:02:00,46.5,44.9,30.11,NW,305,0.0,0.0,94,0.01,,OVC008,-99.99,VWS V12.07,2013-04-20 06:02:00,